MDT,Max TemperatureF,Mean TemperatureF,Min TemperatureF,Max Dew PointF,MeanDew PointF,Min DewpointF,Max Humidity, Mean Humidity, Min Humidity, Max Sea Level PressureIn, Mean Sea Level PressureIn, Min Sea Level PressureIn, Max VisibilityMiles, Mean VisibilityMiles, Min VisibilityMiles, Max Wind SpeedMPH, Mean Wind SpeedMPH, Max Gust SpeedMPH,PrecipitationIn, CloudCover, Events, WindDirDegrees
2012-3-1,35,26,16,25,15,10,75,57,39,29.88,29.76,29.62,10,10,10,26,11,33,0.00,2,,256
2012-3-2,29,22,15,21,18,14,100,82,63,30.10,29.99,29.88,10,8,2,29,14,35,0.02,6,Snow,297
2012-3-3,39,31,23,27,22,19,96,74,52,30.06,29.96,29.87,10,8,2,18,12,24,0.01,6,Snow,264
2012-3-4,42,38,33,32,29,26,82,69,55,30.15,30.04,29.89,10,10,10,20,8,24,0.00,4,,256
2012-3-5,52,44,36,32,27,24,64,53,42,29.94,29.76,29.55,10,10,10,25,15,32,0.00,0,,224
2012-3-6,54,39,23,34,26,21,96,67,38,29.86,29.62,29.39,10,8,1,29,19,36,T,5,Rain-Snow,325
2012-3-7,32,25,18,19,16,13,96,72,47,30.35,30.07,29.83,10,10,5,23,12,29,T,4,Snow,307
2012-3-8,47,34,21,23,18,15,77,53,28,30.46,30.42,30.36,10,10,10,17,8,20,0.00,0,,244
2012-3-9,65,51,36,28,22,18,52,36,19,30.36,30.16,29.94,10,10,10,23,15,29,0.00,0,,216
2012-3-10,67,45,23,32,24,19,81,50,18,29.98,29.81,29.63,10,10,10,21,7,28,0.00,0,,180
2012-3-11,64,44,24,26,23,18,92,55,17,29.71,29.58,29.48,10,10,10,18,7,22,0.00,0,,230
2012-3-12,60,49,37,27,25,22,59,43,26,29.84,29.70,29.50,10,10,10,29,12,37,0.00,0,,235
2012-3-13,65,56,46,25,21,18,42,30,17,29.70,29.58,29.49,10,10,10,41,24,56,0.00,0,,213
2012-3-14,66,44,21,29,24,16,84,53,22,29.93,29.82,29.61,10,10,10,29,11,38,0.00,0,,206
2012-3-15,68,48,28,34,28,25,92,56,20,30.03,29.90,29.74,10,10,10,24,11,31,0.00,0,,200
2012-3-16,72,55,38,33,29,25,62,40,17,29.72,29.59,29.49,10,10,10,33,18,44,0.00,0,,208
2012-3-17,74,52,29,37,28,18,100,57,13,29.67,29.52,29.40,10,10,10,36,13,44,0.00,0,,193
2012-3-18,71,55,38,38,26,17,71,43,14,29.39,29.25,29.10,10,10,10,36,17,46,T,1,Rain,194
2012-3-19,47,35,23,30,26,18,92,65,37,29.79,29.45,29.15,10,9,2,39,19,49,T,5,Snow,279
2012-3-20,54,38,21,25,17,8,100,58,16,29.97,29.85,29.74,10,10,10,36,17,47,0.00,0,,213
2012-3-21,66,46,25,25,20,17,69,43,17,29.96,29.91,29.86,10,10,10,22,10,30,0.00,0,,167
2012-3-22,72,54,36,28,22,15,52,32,12,29.95,29.85,29.76,10,10,10,21,13,26,0.00,0,,168
2012-3-23,78,58,38,34,28,23,67,40,13,29.88,29.80,29.70,10,10,10,25,14,31,0.00,0,,177
2012-3-24,64,46,28,32,30,28,92,61,30,30.18,30.08,29.92,10,10,10,26,11,32,0.00,0,,37
2012-3-25,72,56,39,42,35,31,76,51,26,30.01,29.85,29.71,10,10,10,31,15,37,0.00,0,,144
2012-3-26,69,55,40,43,37,17,100,63,26,29.70,29.55,29.34,10,9,6,49,19,64,0.09,2,Rain,180
2012-3-27,60,46,32,41,33,23,96,61,25,29.99,29.83,29.61,10,10,10,18,7,24,0.00,3,Rain,287
2012-3-28,71,52,32,30,24,19,75,45,14,29.94,29.77,29.64,10,10,10,24,13,31,0.00,0,,216
2012-3-29,66,53,40,39,29,14,83,49,14,29.89,29.76,29.67,10,10,10,22,8,29,0.00,3,,265
2012-3-30,71,56,41,30,27,23,49,34,18,29.74,29.64,29.58,10,10,10,22,13,29,0.00,0,,234
2012-3-31,79,64,49,34,30,23,50,33,16,29.70,29.55,29.32,10,10,10,29,15,36,0.00,1,,217